Binghamton, NY

5:39 AM EST on December 13, 2019 (GMT -0500)
Binghamton Regional-Link

Weather History for KBGM - May, 2019

Change the Weather History Date:

Thursday, May 2, 2019

  Actual Average Record
Temperature  
Mean Temperature 61 °F 51 °F  
Max Temperature 69 °F 61 °F 84 °F (2018)
Min Temperature 52 °F 42 °F 29 °F (1974)
Degree Days  
Heating Degree Days 4 14  
Month to date heating degree days 18 28  
Since 1 July heating degree days 6808 6827  
Cooling Degree Days 0 0  
Month to date cooling degree days 0 0  
Year to date cooling degree days 0 4  
Growing Degree Days 10 (Base 50)    
Moisture  
Dew Point 54 °F    
Average Humidity 77    
Maximum Humidity 93    
Minimum Humidity 61    
Precipitation  
Precipitation 0.03 in 0.11 in 1.03 in (2004)
Month to date precipitation 0.04 0.22  
Year to date precipitation 11.52 11.40  
Snow  
Snow 0.00 in 0.00 in T in (1991)
Month to date snowfall 0.0 0.0  
Since 1 July snowfall 81.4 83.3  
Snow Depth 0.00 in    
Sea Level Pressure  
Sea Level Pressure 30.11 in    
Wind  
Wind Speed 7 mph (West)    
Max Wind Speed 12 mph    
Max Gust Speed 16 mph    
Visibility 7 miles    
Events Rain    
T = Trace of Precipitation, MM = Missing Value Source: NWS Daily Summary

Daily Weather History Graph

Daily Weather History Graph

Search for Another Location

Airport or City:

Astronomy

May. 02, 2019 Rise Set
Actual Time 5:58 AM EDT 8:04 PM EDT
Civil Twilight 5:27 AM EDT 8:34 PM EDT
Nautical Twilight 4:50 AM EDT 9:12 PM EDT
Astronomical Twilight 4:09 AM EDT 9:53 PM EDT
Moon 5:14 AM EDT (5/2) 5:45 PM EDT (5/2)
Length of Visible Light 15h 06m
Length of Day
14h 05m
Waning Crescent, 5% of the Moon is Illuminated
May 2
Waning Crescent
May 4
New
May 11
First Quarter
May 18
Full
May 26
Last Quarter

Hourly Weather History & Observations

Time (EDT) Temp. Dew Point Humidity Pressure Visibility Wind Dir Wind Speed Gust Speed Precip Events Conditions
12:53 AM 53.1 °F 50.0 °F 89% 30.13 in 10.0 mi South 6.9 mph - N/A   Overcast
1:53 AM 53.1 °F 51.1 °F 93% 30.10 in 8.0 mi SW 8.1 mph - N/A   Overcast
2:53 AM 53.1 °F 51.1 °F 93% 30.09 in 7.0 mi WSW 8.1 mph - N/A   Overcast
3:53 AM 53.1 °F 52.0 °F 96% 30.08 in 6.0 mi SW 9.2 mph - 0.00 in Rain Light Rain
4:53 AM 53.1 °F 52.0 °F 96% 30.07 in 6.0 mi SW 6.9 mph - 0.00 in   Overcast
5:18 AM 53.1 °F 52.0 °F 96% 30.07 in 5.0 mi WSW 5.8 mph - N/A   Mostly Cloudy
5:53 AM 53.1 °F 52.0 °F 96% 30.08 in 5.0 mi SW 5.8 mph - N/A   Mostly Cloudy
6:07 AM 53.1 °F 52.0 °F 96% 30.07 in 6.0 mi SW 6.9 mph - N/A   Overcast
6:18 AM 53.1 °F 52.0 °F 96% 30.07 in 5.0 mi SW 6.9 mph - 0.00 in Rain Light Rain
6:53 AM 53.1 °F 52.0 °F 96% 30.09 in 4.0 mi SW 5.8 mph - 0.00 in   Scattered Clouds
7:18 AM 55.0 °F 53.1 °F 93% 30.10 in 5.0 mi WSW 5.8 mph - N/A   Mostly Cloudy
7:53 AM 55.0 °F 53.1 °F 93% 30.11 in 6.0 mi WSW 5.8 mph - N/A   Overcast
8:14 AM 55.9 °F 54.0 °F 93% 30.10 in 7.0 mi WSW 5.8 mph - N/A   Overcast
8:53 AM 55.9 °F 54.0 °F 93% 30.12 in 8.0 mi WSW 5.8 mph - 0.00 in Rain Light Rain
9:37 AM 57.0 °F 55.0 °F 93% 30.11 in 3.0 mi WSW 5.8 mph - 0.01 in Rain Light Rain
9:53 AM 57.0 °F 55.0 °F 93% 30.12 in 3.0 mi WSW 6.9 mph - 0.01 in Rain Light Rain
10:15 AM 57.0 °F 55.0 °F 93% 30.12 in 3.0 mi SW 6.9 mph - 0.01 in Rain Light Rain
10:38 AM 57.0 °F 55.9 °F 96% 30.12 in 3.0 mi WSW 4.6 mph - 0.02 in Rain Light Rain
11:53 AM 60.1 °F 57.0 °F 90% 30.12 in 9.0 mi WNW 5.8 mph - 0.00 in   Overcast
12:53 PM 62.1 °F 57.0 °F 84% 30.12 in 10.0 mi WNW 5.8 mph - N/A   Overcast
1:25 PM 62.1 °F 57.0 °F 84% 30.12 in 10.0 mi NNW 6.9 mph - N/A   Overcast
1:50 PM 60.8 °F 57.2 °F 88% 30.13 in 1.5 mi WNW 5.8 mph - 0.00 in Rain Light Rain
1:53 PM 61.0 °F 57.9 °F 90% 30.13 in 1.5 mi WNW 5.8 mph - 0.00 in Rain Light Rain
2:07 PM 63.0 °F 57.9 °F 84% 30.13 in 10.0 mi WNW 5.8 mph - 0.00 in   Overcast
2:53 PM 64.9 °F 55.9 °F 73% 30.12 in 10.0 mi NNE 5.8 mph - 0.00 in   Overcast
3:53 PM 68.0 °F 55.9 °F 65% 30.12 in 10.0 mi NW 10.4 mph - N/A   Scattered Clouds
4:53 PM 68.0 °F 55.0 °F 63% 30.09 in 10.0 mi North 8.1 mph - N/A   Scattered Clouds
5:53 PM 69.1 °F 55.0 °F 61% 30.10 in 10.0 mi North 9.2 mph - N/A   Scattered Clouds
6:53 PM 66.0 °F 54.0 °F 65% 30.11 in 10.0 mi North 10.4 mph - N/A   Clear
7:53 PM 62.1 °F 53.1 °F 72% 30.12 in 10.0 mi North 5.8 mph - N/A   Clear
8:53 PM 59.0 °F 53.1 °F 81% 30.12 in 10.0 mi NNE 8.1 mph - N/A   Clear
9:53 PM 57.0 °F 52.0 °F 83% 30.14 in 10.0 mi NNE 6.9 mph - N/A   Clear
10:53 PM 57.0 °F 52.0 °F 83% 30.13 in 10.0 mi East 5.8 mph - N/A   Mostly Cloudy